Time,TemperatureF,DewpointF,PressureIn,WindDirection,WindDirectionDegrees,WindSpeedMPH,WindSpeedGustMPH,Humidity,HourlyPrecipIn,Conditions,Clouds,dailyrainin,SoftwareType,DateUTC
2013-11-07 00:22:00,21.0,9.0,30.68,NNW,340,0.0,-999.0,59,-99.99,,,-99.99,,2013-11-07 07:22:00,
2013-11-07 00:42:00,21.0,9.0,30.68,NNW,340,0.0,-999.0,59,-99.99,,,-99.99,,2013-11-07 07:42:00,
2013-11-07 00:52:00,20.0,9.0,30.68,NW,326,0.0,-999.0,61,-99.99,,,-99.99,,2013-11-07 07:52:00,
2013-11-07 01:22:00,21.0,9.0,30.68,North,351,1.0,-999.0,60,-99.99,,,-99.99,,2013-11-07 08:22:00,
2013-11-07 01:42:00,22.0,10.0,30.67,NNW,345,0.0,-999.0,60,-99.99,,,-99.99,,2013-11-07 08:42:00,
2013-11-07 01:52:00,22.0,10.0,30.66,North,5,0.0,-999.0,59,-99.99,,,-99.99,,2013-11-07 08:52:00,
2013-11-07 02:22:00,23.0,11.0,30.66,SSW,213,1.0,-999.0,59,-99.99,,,-99.99,,2013-11-07 09:22:00,
2013-11-07 02:42:00,23.0,11.0,30.66,WSW,258,0.0,-999.0,59,-99.99,,,-99.99,,2013-11-07 09:42:00,
2013-11-07 02:53:00,23.0,11.0,30.66,WSW,258,0.0,-999.0,59,-99.99,,,-99.99,,2013-11-07 09:53:00,
2013-11-07 03:23:00,22.0,11.0,30.66,WSW,258,0.0,-999.0,61,-99.99,,,-99.99,,2013-11-07 10:23:00,
2013-11-07 03:42:00,21.0,10.0,30.65,WSW,258,0.0,-999.0,62,-99.99,,,-99.99,,2013-11-07 10:42:00,
2013-11-07 03:52:00,22.0,11.0,30.65,ENE,63,1.0,-999.0,62,-99.99,,,-99.99,,2013-11-07 10:52:00,
2013-11-07 04:22:00,23.0,12.0,30.65,ESE,115,0.0,-999.0,61,-99.99,,,-99.99,,2013-11-07 11:22:00,
2013-11-07 04:42:00,23.0,12.0,30.65,ESE,103,0.0,-999.0,62,-99.99,,,-99.99,,2013-11-07 11:42:00,
2013-11-07 04:52:00,23.0,12.0,30.65,ESE,103,0.0,-999.0,62,-99.99,,,-99.99,,2013-11-07 11:52:00,
2013-11-07 05:22:00,24.0,12.0,30.64,NNE,13,0.0,-999.0,60,-99.99,,,-99.99,,2013-11-07 12:22:00,
2013-11-07 05:52:00,23.0,12.0,30.65,NE,55,0.0,-999.0,62,-99.99,,,-99.99,,2013-11-07 12:52:00,
2013-11-07 06:12:00,23.0,12.0,30.65,East,87,1.0,-999.0,62,-99.99,,,-99.99,,2013-11-07 13:12:00,
2013-11-07 06:21:00,23.0,13.0,30.65,East,87,0.0,-999.0,64,-99.99,,,-99.99,,2013-11-07 13:21:00,
2013-11-07 06:42:00,22.0,11.0,30.65,East,88,0.0,-999.0,63,-99.99,,,-99.99,,2013-11-07 13:42:00,
2013-11-07 06:52:00,20.0,11.0,30.65,East,88,0.0,-999.0,66,-99.99,,,-99.99,,2013-11-07 13:52:00,
2013-11-07 07:22:00,20.0,11.0,30.66,East,88,0.0,-999.0,66,-99.99,,,-99.99,,2013-11-07 14:22:00,
2013-11-07 07:42:00,20.0,10.0,30.66,East,93,0.0,-999.0,65,-99.99,,,-99.99,,2013-11-07 14:42:00,
2013-11-07 07:52:00,22.0,11.0,30.66,East,84,0.0,-999.0,61,-99.99,,,-99.99,,2013-11-07 14:52:00,
2013-11-07 09:42:00,36.0,11.0,30.65,North,349,1.0,-999.0,35,-99.99,,,-99.99,,2013-11-07 16:42:00,
2013-11-07 10:43:00,38.0,15.0,30.62,NE,54,0.0,-999.0,38,-99.99,,,-99.99,,2013-11-07 17:43:00,
2013-11-07 10:52:00,40.0,15.0,30.61,NE,46,2.0,-999.0,35,-99.99,,,-99.99,,2013-11-07 17:52:00,
2013-11-07 11:12:00,40.0,15.0,30.60,East,94,2.0,-999.0,35,-99.99,,,-99.99,,2013-11-07 18:12:00,
2013-11-07 11:23:00,41.0,16.0,30.59,NNW,348,2.0,-999.0,36,-99.99,,,-99.99,,2013-11-07 18:23:00,
2013-11-07 11:42:00,41.0,16.0,30.59,North,355,3.0,-999.0,36,-99.99,,,-99.99,,2013-11-07 18:42:00,
2013-11-07 11:52:00,42.0,16.0,30.58,NNE,30,1.0,-999.0,35,-99.99,,,-99.99,,2013-11-07 18:52:00,
2013-11-07 12:21:00,43.0,17.0,30.55,NNE,30,2.0,-999.0,35,-99.99,,,-99.99,,2013-11-07 19:21:00,
2013-11-07 12:42:00,43.0,17.0,30.54,South,191,1.0,-999.0,34,-99.99,,,-99.99,,2013-11-07 19:42:00,
2013-11-07 12:52:00,43.0,17.0,30.54,SSW,206,1.0,-999.0,35,-99.99,,,-99.99,,2013-11-07 19:52:00,
2013-11-07 13:21:00,41.0,17.0,30.52,West,275,0.0,-999.0,38,-99.99,,,-99.99,,2013-11-07 20:21:00,
2013-11-07 13:42:00,42.0,17.0,30.51,South,182,1.0,-999.0,36,-99.99,,,-99.99,,2013-11-07 20:42:00,
2013-11-07 13:52:00,42.0,18.0,30.49,NNE,27,4.0,-999.0,37,-99.99,,,-99.99,,2013-11-07 20:52:00,
2013-11-07 14:22:00,42.0,17.0,30.48,South,184,1.0,-999.0,36,-99.99,,,-99.99,,2013-11-07 21:22:00,
2013-11-07 14:43:00,43.0,19.0,30.47,SW,227,1.0,-999.0,37,-99.99,,,-99.99,,2013-11-07 21:43:00,
2013-11-07 14:53:00,43.0,19.0,30.45,SSW,198,1.0,-999.0,37,-99.99,,,-99.99,,2013-11-07 21:53:00,
2013-11-07 15:23:00,42.0,17.0,30.44,North,360,0.0,-999.0,36,-99.99,,,-99.99,,2013-11-07 22:23:00,
2013-11-07 15:43:00,41.0,17.0,30.43,NNW,335,0.0,-999.0,37,-99.99,,,-99.99,,2013-11-07 22:43:00,
2013-11-07 15:53:00,41.0,18.0,30.43,ENE,70,1.0,-999.0,39,-99.99,,,-99.99,,2013-11-07 22:53:00,
2013-11-07 16:43:00,38.0,16.0,30.41,SSE,163,0.0,-999.0,41,-99.99,,,-99.99,,2013-11-07 23:43:00,
2013-11-07 20:44:00,31.0,14.0,30.34,SSE,165,1.0,-999.0,49,-99.99,,,-99.99,,2013-11-08 03:44:00,
2013-11-07 20:55:00,32.0,15.0,30.33,South,170,0.0,-999.0,50,-99.99,,,-99.99,,2013-11-08 03:55:00,
2013-11-07 21:23:00,33.0,15.0,30.31,NNE,15,1.0,-999.0,47,-99.99,,,-99.99,,2013-11-08 04:23:00,
2013-11-07 21:43:00,34.0,15.0,30.30,NNW,345,2.0,-999.0,45,-99.99,,,-99.99,,2013-11-08 04:43:00,
2013-11-07 21:54:00,34.0,15.0,30.29,WSW,242,1.0,-999.0,45,-99.99,,,-99.99,,2013-11-08 04:54:00,
2013-11-07 22:23:00,35.0,16.0,30.28,ENE,66,2.0,-999.0,45,-99.99,,,-99.99,,2013-11-08 05:23:00,
2013-11-07 22:43:00,35.0,16.0,30.27,WSW,255,2.0,-999.0,46,-99.99,,,-99.99,,2013-11-08 05:43:00,
2013-11-07 22:54:00,35.0,18.0,30.26,SW,224,3.0,-999.0,49,-99.99,,,-99.99,,2013-11-08 05:54:00,
2013-11-07 23:23:00,34.0,16.0,30.25,SSW,199,2.0,-999.0,48,-99.99,,,-99.99,,2013-11-08 06:23:00,
2013-11-07 23:42:00,34.0,16.0,30.24,NNE,12,1.0,-999.0,48,-99.99,,,-99.99,,2013-11-08 06:42:00,
2013-11-07 23:52:00,33.0,16.0,30.23,NNE,16,0.0,-999.0,50,-99.99,,,-99.99,,2013-11-08 06:52:00,